SCP
5 4 4 3 4 4 4 4 4 5 6 7 7 6 5 5 5 4 4 5 7 7 7 7 7 7 7 6 6 6 5 5 5 5 4 4 4 4 4 4 3 3 2
5 5 4 4 4 4 4 4 4 5 6 6 6 5 5 5 5 5 4 5 6 7 7 7 7 8 7 7 7 6 6 6 6 5 5 5 4 4 4 4 3 3 2
5 5 5 5 4 4 4 4 4 4 4 4 4 3 3 4 4 5 4 4 5 6 7 7 8 8 8 8 8 8 7 7 7 6 6 5 5 4 4 4 3 3 2
5 5 5 5 4 4 3 3 3 3 3 3 2 2 2 2 3 3 2 2 3 4 5 6 7 8 8 8 8 8 8 7 7 6 6 5 5 4 4 4 3 3 2
5 5 5 5 4 4 4 3 3 2 2 2 2 1 1 1 2 1 1 1 2 2 3 3 4 6 7 8 8 8 8 7 7 6 6 6 5 5 4 4 4 3 3
6 5 5 5 5 5 4 4 3 3 2 2 2 2 1 1 1 1 1 1 1 1 1 2 3 4 5 5 6 7 7 7 7 7 6 6 6 5 4 4 3 3 3
6 6 5 5 5 5 4 4 4 4 3 2 2 2 1 1 1 1 1 1 1 1 1 2 2 2 3 3 4 5 6 7 7 7 6 6 6 5 4 3 3 3 3
7 6 6 5 5 5 4 4 4 4 4 3 2 2 1 1 1 1 1 1 1 1 1 1 2 2 2 2 2 3 5 6 7 6 6 6 5 5 4 3 3 3 2
7 6 5 5 5 5 4 5 5 5 4 4 3 2 2 1 1 1 1 1 1 1 1 1 1 1 1 1 1 2 3 3 4 5 6 5 5 4 4 4 3 3 2
6 5 5 5 5 5 4 5 5 5 5 4 3 2 2 1 1 1 1 1 1 1 1 1 1 1 1 1 1 1 1 1 2 3 4 5 4 4 4 4 4 3 3
4 4 4 4 4 4 4 4 5 5 5 4 3 2 1 1 1 1 1 1 1 1 1 0 0 0 0 0 0 0 0 0 1 1 2 3 4 4 4 4 4 4 3
4 4 3 3 3 3 3 4 4 4 4 3 2 1 1 1 1 1 1 0 0 1 0 0 0 0 0 0 0 0 0 0 0 0 1 1 2 3 3 4 4 4 4
4 4 3 3 3 3 3 3 3 3 3 2 1 1 1 1 1 0 0 0 0 0 0 0 0 0 0 0 0 0 0 0 0 0 0 0 1 1 2 3 3 3 3
4 4 4 3 2 2 2 2 2 2 2 1 1 1 1 1 0 0 0 0 0 0 0 0 0 0 0 0 0 0 0 0 0 0 0 0 0 0 1 1 1 2 2
2 3 3 3 2 1 2 2 2 2 1 1 1 1 0 0 0 0 0 0 0 0 0 0 0 0 0 0 0 0 0 0 0 0 0 0 0 0 0 0 0 0 0
1 2 2 2 1 1 1 2 2 1 1 1 1 0 0 0 0 0 0 0 0 0 0 0 0 0 0 0 0 0 0 0 0 0 0 0 0 0 0 0 0 0 0
1 1 2 1 1 1 1 1 1 1 1 1 0 0 0 0 0 0 0 0 0 0 0 0 0 0 0 0 0 0 0 0 0 0 0 0 0 0 0 0 0 0 0
1 1 1 1 1 1 0 1 1 1 0 0 0 0 0 0 0 0 0 0 0 0 0 0 0 0 0 0 0 0 0 0 0 0 0 0 0 0 0 0 0 0 0
1 1 1 1 0 0 0 0 0 0 0 0 0 0 0 0 0 0 0 0 0 0 0 0 0 0 0 0 0 0 0 0 0 0 0 0 0 0 0 0 0 0 0
1 1 0 0 0 0 0 0 0 0 0 0 0 0 0 0 0 0 0 0 0 0 0 0 0 0 0 0 0 0 0 0 0 0 0 0 0 0 0 0 0 0 0
0 0 0 0 0 0 0 0 0 0 0 0 0 0 0 0 0 0 0 0 0 0 0 0 0 0 0 0 0 0 0 0 0 0 0 0 0 0 0 0 0 0 0
0 0 0 0 0 0 0 0 0 0 0 0 0 0 0 0 0 0 0 0 0 0 0 0 0 0 0 0 0 0 0 0 0 0 0 0 0 0 0 0 0 0 0
0 0 0 0 0 0 0 0 0 0 0 0 0 0 0 0 0 0 0 0 0 0 0 0 0 0 0 0 0 0 0 0 0 0 0 0 0 0 0 0 0 0 0
0 0 0 0 0 0 0 0 0 0 0 0 0 0 0 0 0 0 0 0 0 0 0 0 0 0 0 0 0 0 0 0 0 0 0 0 0 0 0 0 0 0 0
0 0 0 0 0 0 0 0 0 0 0 0 0 0 0 0 0 0 0 0 0 0 0 0 0 0 0 0 0 0 0 0 0 0 0 0 0 0 0 0 0 0 0
0 0 0 0 0 0 0 0 0 0 0 0 0 0 0 0 0 0 0 0 0 0 0 0 0 0 0 0 0 0 0 0 0 0 0 0 0 0 0 0 0 0 0
Wind_Speed
7 7 6 6 6 6 6 6 7 7 8 8 8 9 9 8 8 7 6 13 15 16 17 18 19 20 19 19 18 17 17 17 16 16 16 18 18 19 19 19 18 18 17
8 7 6 6 6 6 6 6 7 7 6 6 7 7 6 6 6 7 6 7 13 15 17 19 20 21 21 20 19 18 18 17 16 15 16 17 17 18 18 19 18 18 17
10 8 6 6 5 5 5 4 5 4 4 4 5 5 4 5 5 5 6 5 6 12 17 19 20 21 21 21 20 19 18 18 17 16 16 16 17 17 17 18 18 18 17
11 8 7 6 6 4 4 3 3 3 3 3 3 4 4 4 5 5 5 5 5 6 10 18 21 21 21 22 21 20 19 18 17 17 17 16 17 16 17 17 17 17 17
11 8 6 5 5 4 4 4 3 3 3 3 4 4 4 4 5 6 6 6 6 7 7 10 17 20 21 21 21 21 20 19 18 18 17 17 17 16 16 16 16 16 16
7 7 6 6 5 4 4 4 4 3 3 3 4 4 4 5 4 5 6 6 5 7 6 7 6 9 16 18 18 19 19 19 18 18 18 18 18 17 16 16 16 16 16
6 6 6 6 5 5 5 4 3 3 3 2 1 3 4 5 5 5 4 4 4 5 4 4 3 4 5 11 14 16 18 19 18 17 18 18 18 17 16 16 16 16 16
6 6 6 5 5 4 5 5 4 3 3 3 3 2 3 4 3 3 2 2 3 3 3 4 3 3 3 2 5 11 14 16 16 16 17 17 17 17 17 17 17 16 17
6 6 6 6 6 6 6 6 5 6 5 4 4 4 3 4 3 3 2 1 2 2 2 3 3 2 2 2 2 5 9 10 11 14 15 16 16 16 16 17 17 17 17
6 7 7 7 7 6 6 7 7 5 5 4 3 4 4 3 2 3 3 2 2 2 2 2 2 3 2 1 2 2 4 5 6 8 9 11 13 14 15 16 17 18 18
5 6 6 6 6 6 7 7 6 6 5 5 4 3 3 2 3 3 3 3 3 2 1 1 2 2 3 2 2 2 3 3 3 3 4 4 7 10 11 13 14 15 16
4 5 5 5 6 6 7 7 6 7 6 6 4 4 3 3 3 3 3 2 2 3 2 2 3 3 2 2 3 4 4 3 3 2 2 1 1 3 5 7 9 12 13
4 5 5 5 5 6 6 6 6 6 6 6 5 4 4 3 3 3 2 2 1 2 2 2 2 3 3 2 2 4 3 3 3 3 3 3 2 1 1 3 6 8 10
5 5 5 5 5 6 6 5 5 5 5 5 5 4 3 3 3 3 3 3 1 1 2 2 2 3 3 2 3 3 2 3 3 3 3 3 3 2 1 2 3 4 6
5 5 5 4 5 5 5 5 4 4 4 4 4 4 3 2 2 3 3 3 4 2 1 3 3 3 3 2 4 3 2 3 3 3 3 3 3 3 2 2 3 4 5
4 3 3 3 3 3 4 3 3 3 3 3 3 3 2 1 2 2 2 2 2 3 2 1 1 2 4 4 6 4 3 5 4 3 3 3 2 3 3 4 4 5 6
3 3 2 2 1 1 1 2 3 3 3 3 3 5 4 3 3 2 3 3 2 3 4 1 2 3 4 5 5 4 3 3 3 5 4 4 3 3 4 5 6 7 8
3 3 3 3 2 2 1 2 3 4 5 5 6 6 5 5 5 4 4 4 4 4 5 4 3 4 4 4 4 4 4 3 3 5 5 5 4 4 4 5 6 7 8
3 3 3 3 3 2 3 4 5 7 7 7 7 8 6 7 7 5 5 5 5 6 5 4 3 3 3 3 4 4 4 3 3 4 5 5 5 5 5 6 6 7 8
1 2 2 2 3 3 5 6 8 8 8 8 6 7 6 6 6 6 7 7 7 7 6 5 4 3 3 3 3 4 4 3 3 4 5 4 5 5 5 6 6 7 8
1 0 1 2 3 3 5 7 8 9 8 8 7 7 7 8 8 7 7 6 7 6 5 5 4 4 4 4 4 3 3 3 3 3 3 3 3 3 3 4 6 8 9
0 1 2 2 3 3 7 9 8 7 7 7 7 6 7 8 11 12 11 10 8 7 5 4 3 3 3 3 3 3 3 3 4 4 3 4 3 3 3 3 6 8 9
2 2 2 3 4 4 8 10 10 7 6 6 5 5 5 6 6 6 8 10 9 9 7 5 4 2 2 2 3 4 4 2 1 4 3 3 3 3 3 4 7 8 8
3 3 3 4 4 5 9 11 11 7 6 5 5 6 6 5 5 6 7 7 6 5 5 4 3 1 1 1 0 0 1 2 3 3 3 2 4 3 4 4 6 8 8
4 4 4 5 5 5 9 11 10 6 6 6 5 5 7 6 9 11 8 7 6 5 5 7 6 5 6 6 4 4 4 4 3 4 2 2 4 4 4 3 5 8 9
5 5 5 5 6 5 9 12 11 6 7 5 4 5 7 9 10 11 7 6 6 3 4 6 7 8 7 7 8 4 2 2 2 3 4 3 3 4 5 4 3 4 5
Wind_Direction
225 226 227 224 221 215 217 222 229 235 236 238 239 241 244 241 238 236 244 249 245 239 236 231 228 227 230 232 233 233 234 233 230 225 223 222 222 220 218 218 217 216 214
224 226 226 220 217 212 213 217 223 226 229 231 238 243 247 248 245 244 245 254 251 243 236 234 232 231 232 232 233 234 234 234 231 226 223 222 222 221 220 219 219 217 215
220 221 223 220 215 207 206 213 222 221 225 229 240 248 255 258 255 258 260 253 255 252 242 237 236 236 236 236 235 235 234 231 229 226 223 221 221 220 219 219 219 217 215
217 217 219 218 208 200 201 207 211 214 229 233 242 251 251 261 265 266 266 263 259 263 253 244 240 239 240 240 238 239 236 232 228 225 222 220 219 218 217 218 218 217 215
220 216 221 219 203 201 208 217 211 203 223 240 248 249 251 256 266 275 274 273 266 261 259 253 245 242 242 242 241 240 238 235 230 226 223 220 218 216 216 216 217 216 214
221 210 215 216 205 205 213 214 213 212 219 226 254 265 261 256 260 265 272 281 284 282 271 262 255 252 246 245 244 242 240 238 233 228 225 220 218 215 212 213 214 215 215
222 213 215 211 212 217 217 211 207 223 232 211 256 290 283 262 257 260 265 281 297 302 303 297 277 266 262 250 248 248 246 242 236 231 226 220 217 214 211 212 213 215 215
232 223 217 213 214 219 219 217 204 199 219 195 192 243 301 313 286 260 261 270 301 320 330 344 325 292 279 271 259 257 259 253 246 238 229 220 217 214 211 212 214 215 216
239 230 226 221 218 213 222 221 211 206 219 218 197 189 212 249 298 306 291 297 329 339 340 334 322 331 322 293 284 274 273 269 260 250 234 221 215 213 212 214 216 217 218
243 236 228 219 218 215 217 218 215 209 207 222 221 217 211 195 218 294 305 301 320 335 340 344 339 1 12 1 336 326 314 295 279 266 245 227 218 216 215 217 220 221 220
255 247 234 226 225 222 221 219 213 206 206 212 208 203 215 217 207 222 279 309 326 316 329 348 3 14 20 28 19 22 354 336 320 291 278 244 227 219 219 223 227 228 226
272 264 251 235 232 227 223 220 215 210 211 211 207 197 188 191 195 196 230 268 297 302 341 19 24 18 12 20 20 40 40 30 25 24 38 87 242 238 234 233 235 237 238
280 271 261 245 238 232 226 219 211 208 205 207 204 201 196 198 181 175 187 222 269 304 345 14 16 17 14 13 9 23 31 34 37 41 55 64 62 47 300 257 253 253 253
277 274 264 249 241 232 226 213 207 206 201 204 206 193 194 203 186 178 171 168 174 330 8 357 347 8 1 6 4 12 11 18 33 43 54 61 62 56 26 337 314 296 281
288 283 271 256 241 227 212 196 200 206 197 193 193 190 181 189 176 178 169 164 156 154 20 345 356 347 352 7 4 11 9 15 36 47 47 49 51 43 25 356 327 310 298
304 301 282 262 247 229 212 201 198 194 177 178 172 157 147 152 146 141 144 147 148 146 129 358 353 341 356 16 18 21 28 37 39 38 35 29 20 10 358 344 331 315 301
325 329 327 320 316 294 211 174 172 159 155 145 130 126 116 109 99 91 94 99 101 113 115 51 10 3 19 16 6 15 33 40 35 38 33 21 4 350 340 333 325 317 310
339 352 6 13 27 39 53 130 142 137 126 120 111 106 101 96 80 75 82 85 86 93 110 93 25 10 19 10 9 19 24 39 41 39 34 22 4 348 337 330 324 319 313
342 360 17 20 24 40 66 83 96 97 99 102 103 101 95 93 84 78 81 82 81 83 84 93 51 11 5 5 9 10 18 15 18 22 17 11 1 349 343 337 331 326 322
350 8 19 33 42 55 76 85 90 93 92 89 88 93 92 94 96 93 88 87 91 85 78 76 56 20 2 343 15 7 1 356 357 4 2 356 357 357 351 342 335 334 329
279 349 58 55 63 77 88 98 101 103 99 95 86 84 88 93 95 95 98 96 94 90 81 74 58 36 17 11 359 341 356 339 342 353 344 346 348 344 341 336 332 332 330
191 111 89 85 84 94 113 112 111 107 107 107 101 89 83 77 83 85 91 97 104 105 101 88 70 58 21 2 348 359 4 13 351 336 350 327 333 324 314 310 321 325 328
153 122 103 102 95 116 127 122 120 117 113 115 114 103 94 83 82 86 80 75 72 82 103 120 102 85 50 351 10 13 12 14 303 307 351 324 320 312 304 308 317 322 324
170 159 140 128 112 123 131 128 125 113 107 106 105 107 105 92 94 100 89 74 60 54 67 87 117 122 97 17 46 317 285 338 324 321 20 337 312 304 304 309 316 320 321
168 161 150 143 129 129 134 134 125 111 104 96 98 104 107 97 104 102 94 84 59 31 47 67 79 73 55 46 50 41 25 32 356 318 345 356 310 310 310 310 319 329 328
167 158 153 152 144 140 139 136 129 122 114 107 91 86 98 106 105 103 101 96 79 39 43 57 50 40 36 32 41 59 71 57 13 329 322 347 324 337 328 311 317 332 335